Regional Weather Roundup
Issued by NWS

Home | Current Version | Previous Version | Graphics & Text | Print | Product List | Glossary On
Versions: 1 2 3 4 5 6 7 8 9 10 11 12 13 14 15 16 17 18 19 20 21 22 23 24 25 26 27 28 29 30 31 32 33 34 35 36 37 38 39 40 41 42 43 44 45 46 47 48 49 50
458
ASUS45 KCYS 230910
RWRWY

WYOMING REGIONAL WEATHER ROUNDUP
NATIONAL WEATHER SERVICE CHEYENNE WY
200 AM MST THU FEB 23 2017

NOTE:  "FAIR" INDICATES FEW OR NO CLOUDS BELOW 12,000 FEET
WITH NO SIGNIFICANT WEATHER AND/OR OBSTRUCTIONS TO VISIBILITY.

WYZ001-231000-
YELLOWSTONE NATIONAL PARK

CITY           SKY/WX    TMP DP  RH WIND       PRES   REMARKS
LK YELLOWSTONE   N/A      1  -1  91 CALM      29.68F
W YELLOWSTONE  NOT AVBL

$$
WYZ002>013-054>058-071-098>099-231000-
NORTHERN WYOMING

CITY           SKY/WX    TMP DP  RH WIND       PRES   REMARKS
JACKSON        MOCLDY    18  14  86 N20       29.63F WCI   1
CODY           CLOUDY    27  24  89 NE10      29.79R WCI  17
GREYBULL       CLOUDY    31  26  82 NW12      29.76F WCI  22
WORLAND        CLOUDY    31  29  92 N5        29.76F WCI  26
SHERIDAN       CLOUDY    30  27  88 VRB5      29.85S WCI  25
BUFFALO        CLOUDY    29  25  85 N8        29.82R WCI  21
GILLETTE       CLOUDY    30  26  85 NE8       29.83S WCI  22
HULETT         CLOUDY    28  27  93 E8        29.86S WCI  20
NEWCASTLE      LGT SNOW  30  30 100 E5        29.84R WCI  25

$$
WYZ014>020-022>026-101>103-231000-
CENTRAL WYOMING

CITY           SKY/WX    TMP DP  RH WIND       PRES   REMARKS
BIG PINEY      CLOUDY    18  15  88 N7        29.63S WCI   9
PINEDALE       FAIR      19  14  79 CALM      29.62F
DUBOIS         LGT SNOW  18  14  86 CALM      29.63F
LANDER         SNOW      28  27  96 E10       29.68S VSB 1/2 WCI  19
RIVERTON       LGT SNOW  27  26  96 NE13      29.69S FOG     WCI  16
CASPER         LGT SNOW  28  26  92 NE18      29.71F FOG     WCI  15
DOUGLAS        LGT SNOW  29  28  96 E13       29.73F VSB 1   WCI  19

$$
WYZ021-027>030-104>119-231000-
SOUTHERN WYOMING

CITY           SKY/WX    TMP DP  RH WIND       PRES   REMARKS
EVANSTON       LGT SNOW  19  15  84 SW8       29.62F FOG     WCI   9
FORT BRIDGER   LGT SNOW  21  21 100 W16       29.64F WCI   7
ROCK SPRINGS   LGT SNOW  24  22  91 N10       29.58F FOG     WCI  14
DIXON            N/A     26  25  94 NE6       29.54F WCI  20
RAWLINS        LGT SNOW  26  23  88 NE26G35   29.55F FOG     WCI  10
SARATOGA       SNOW      25  25 100 W8        29.55S VSB 1/4 WCI  16
LARAMIE        LGT SNOW  26  21  81 SE28G35   29.56F WCI  10
CHEYENNE       CLOUDY    29  27  92 E16       29.68F WCI  17
TORRINGTON     LGT SNOW  31  29  92 NE14      29.73F FOG     WCI  21
PINE BLUFFS    CLOUDY    32  32 100 NE10G16   29.71F WCI  24

$$




USA.gov is the U.S. government's official web portal to all federal, state and local government web resources and services.